Tracking 30970 objects as of 3-Jul-2025
HD Live streaming from Space Station
objects crossing your sky now

COSMOS 1275 DEB

Track COSMOS 1275 DEB now!
10-day predictions


NORAD ID: 12757
Int'l Code: 1981-053DA
Perigee: 918.7 km
Apogee: 1,002.5 km
Inclination: 82.9 °
Period: 104.1 minutes
Semi major axis: 7331 km
RCS: 0.017 m2 (small)
Launch date: June 4, 1981
Source: Commonwealth of Independent States (former USSR) (CIS)
Launch site: PLESETSK MISSILE AND SPACE COMPLEX (PKMTR)

Note: This is SATELLITE DEBRIS
Your satellite tracking list
SPACEBEE-53
Track 1 satellite(s)




NASA's NSSDC Master Catalog

Two Line Element Set (TLE):
1 12757U 81053DA  25183.87051800  .00000407  00000-0  35468-3 0  9997
2 12757  82.9490 117.1288 0057159 300.2757 134.1987 13.82936214205127
Source of the keplerian elements: AFSPC